Temperature
23 22 22 21 21 21 21 20 20 20 19 19 19 19 19 19 18 18 18 18 18 18 18 18 17 17 17 17 17 17 17 17 17 17 17 17 17 17 17 17 17 17 17
22 22 22 22 22 21 21 21 20 20 20 20 19 19 19 19 18 18 18 18 18 18 18 18 17 17 17 17 17 17 17 17 17 17 17 16 16 17 17 17 17 17 17
23 23 23 22 22 22 21 21 21 20 20 20 19 19 19 19 19 18 18 18 18 18 18 18 17 17 17 17 17 17 17 17 17 17 17 16 16 16 16 16 16 16 16
23 23 23 23 22 22 22 21 21 20 20 20 20 19 19 19 19 19 18 18 18 18 18 17 17 17 17 17 17 17 17 17 17 17 17 16 16 16 16 16 16 16 16
23 24 24 23 23 22 22 22 21 21 20 20 20 19 19 19 19 19 18 18 18 18 18 17 17 17 17 17 17 17 17 17 17 17 17 16 16 16 16 16 16 16 16
23 24 24 23 23 23 22 22 21 21 20 20 20 19 19 19 19 19 18 18 18 18 18 18 17 17 17 17 17 17 17 17 17 17 16 16 16 16 16 16 16 16 16
23 23 23 23 23 23 22 22 21 21 21 20 20 20 19 19 19 19 19 18 18 18 18 18 17 17 17 17 17 17 17 17 17 17 16 16 16 16 16 16 16 15 15
23 23 23 23 23 23 23 22 22 21 21 20 20 20 19 19 19 19 19 18 18 18 18 18 17 17 17 17 17 17 17 17 17 17 16 16 16 16 16 16 15 15 15
23 23 23 23 23 23 23 23 22 22 21 21 20 20 20 19 19 19 18 18 18 18 18 18 18 17 17 17 17 17 17 17 17 16 16 16 16 16 16 16 15 15 15
22 22 23 23 23 23 23 22 22 22 21 21 21 20 20 19 19 19 19 18 18 18 18 18 18 17 17 17 17 17 17 17 17 16 16 16 16 16 16 16 15 15 15
22 22 23 23 23 23 23 22 22 22 21 21 20 20 20 20 19 19 19 18 18 18 18 18 18 18 17 17 17 17 17 17 17 16 16 16 16 16 16 15 15 15 15
22 22 22 22 22 22 22 22 21 21 21 21 20 20 20 19 19 19 19 18 18 18 18 18 18 18 17 17 17 17 17 17 17 16 16 16 16 16 16 15 15 15 15
21 21 22 22 22 22 21 21 21 21 21 20 20 20 19 19 19 19 18 18 18 18 17 17 17 17 17 17 17 17 17 17 17 16 16 16 16 16 15 15 15 15 15
21 21 21 21 21 21 21 21 21 21 20 20 20 19 19 19 19 18 18 18 18 17 17 17 17 17 17 17 17 17 17 17 17 16 16 16 16 15 15 15 15 15 15
20 20 20 20 20 20 20 20 20 20 20 19 19 19 19 18 18 18 18 18 17 17 17 17 17 17 17 17 17 17 16 16 16 16 16 16 16 15 15 15 15 15 14
19 19 20 20 20 20 20 20 20 20 19 19 19 18 18 18 18 18 18 18 17 17 17 17 17 17 17 16 16 16 16 16 16 16 16 15 15 15 15 15 14 14 14
18 19 19 19 20 20 20 20 19 19 19 19 18 18 18 18 18 17 17 17 17 17 17 17 17 17 16 16 16 16 15 15 15 15 15 15 15 15 14 14 14 14 14
18 19 19 19 19 19 19 19 19 19 19 19 18 18 18 18 17 17 17 17 17 17 17 17 16 16 16 16 16 16 15 15 15 15 15 15 14 14 14 14 14 14 13
19 19 19 19 19 19 19 19 19 18 18 18 18 18 18 17 17 17 17 17 17 17 16 16 16 16 16 16 16 15 15 15 15 14 14 14 14 14 14 14 14 13 13
18 19 19 19 19 19 19 19 19 18 18 18 18 18 17 17 17 17 17 17 16 16 16 16 16 16 16 16 15 15 15 14 14 14 14 14 14 14 13 13 13 13 13
18 18 18 18 18 18 18 18 18 18 18 17 17 17 17 17 17 17 16 16 16 16 16 15 15 15 15 15 15 15 14 14 14 14 14 14 13 13 13 13 13 13 13
17 17 17 17 17 17 17 17 17 17 17 17 17 17 16 16 16 16 16 16 16 15 15 15 15 15 15 15 15 14 14 14 14 14 13 13 13 13 13 13 12 12 12
17 17 17 17 16 16 16 16 17 16 16 16 16 16 16 15 15 15 15 15 15 15 15 15 15 15 15 15 14 14 14 13 13 13 13 13 12 12 12 12 12 12 12
16 16 16 16 16 16 16 16 16 16 16 15 15 15 15 15 15 15 15 14 14 14 14 14 14 14 14 14 14 14 13 13 13 13 12 12 12 12 12 12 12 11 11
15 15 15 15 15 15 15 15 15 15 15 15 15 15 15 15 14 14 14 14 14 14 14 14 14 14 13 13 13 13 13 13 12 12 12 12 11 11 11 11 11 11 11
15 15 15 15 15 14 14 14 14 14 14 14 14 14 14 14 14 14 13 13 13 13 13 13 13 13 13 13 12 12 12 12 12 11 11 11 11 11 11 11 11 11 11
Wind_Speed
8 7 7 8 8 7 8 8 7 6 6 3 3 3 2 2 1 3 4 5 5 6 5 3 2 3 3 2 3 2 2 1 2 2 1 2 1 1 0 0 0 1 2
7 8 8 8 9 9 9 8 8 7 7 5 3 3 2 2 1 1 2 4 4 5 5 3 3 3 3 2 3 3 2 1 2 2 1 1 2 2 1 0 0 1 0
11 10 10 10 10 10 10 9 8 8 7 6 4 3 2 2 1 0 1 2 3 4 4 4 3 3 3 3 3 4 4 3 2 1 2 2 2 1 1 1 1 1 0
10 10 10 11 12 11 10 9 9 8 7 7 6 6 4 3 3 2 2 1 2 3 4 4 4 3 3 3 3 3 3 3 2 1 1 1 2 2 1 1 1 1 1
11 12 12 12 11 10 10 9 8 7 7 7 8 6 5 4 2 2 2 2 1 2 3 4 3 3 3 3 3 3 3 3 3 3 2 1 1 1 2 1 1 1 1
9 10 10 9 9 9 9 9 9 7 7 7 7 7 7 5 4 3 3 2 1 2 2 3 3 3 3 4 4 4 4 3 3 2 2 2 2 2 2 2 2 1 1
8 9 10 10 10 10 11 10 10 8 7 8 7 7 7 6 6 5 5 3 2 2 3 3 3 3 4 4 4 4 4 4 4 4 3 3 3 2 2 2 1 1 1
8 9 10 11 11 11 10 10 10 8 8 8 8 7 6 5 4 5 4 4 3 3 3 4 4 4 4 4 4 3 4 4 4 5 4 3 3 3 3 3 3 1 1
8 9 9 9 9 10 11 11 11 9 8 8 7 6 6 5 5 4 4 3 3 3 3 3 3 4 4 4 4 3 4 4 4 4 4 3 3 3 3 3 3 3 2
6 7 8 9 8 8 8 8 8 8 7 7 6 6 5 5 5 4 4 4 4 3 3 3 3 3 4 4 4 4 4 4 4 3 4 3 3 3 3 3 3 3 3
6 6 6 6 5 5 6 6 6 5 5 6 5 5 5 5 4 4 5 4 3 4 4 4 3 3 3 4 4 4 5 5 4 4 4 4 4 3 3 3 3 3 3
5 4 4 5 5 5 6 6 6 5 5 6 6 5 4 4 4 5 5 4 4 4 5 4 4 4 4 4 5 5 5 6 5 5 5 5 4 4 3 3 3 3 3
4 4 4 5 5 4 5 5 6 6 6 5 5 5 5 5 4 4 4 4 5 5 5 5 5 5 4 4 5 5 5 6 6 6 6 5 5 4 3 3 3 3 3
4 4 4 4 4 4 4 4 4 4 5 5 5 6 6 6 5 4 4 4 4 5 6 5 5 5 5 5 5 5 5 5 5 5 5 5 5 5 5 4 4 4 3
4 4 4 3 4 3 3 3 3 3 4 5 5 5 5 4 4 4 4 5 5 5 5 5 5 5 5 5 5 5 5 5 4 4 4 5 5 6 5 4 4 5 4
3 4 3 3 3 3 3 3 2 2 3 4 4 4 4 3 3 4 4 4 4 4 4 5 5 5 5 6 7 5 5 5 5 4 4 3 4 5 6 6 6 6 5
3 3 3 3 3 3 3 3 3 3 3 3 3 3 3 3 4 4 4 3 4 4 4 5 5 5 5 6 6 6 4 4 4 5 4 3 3 4 4 5 6 6 6
2 3 3 2 2 2 2 2 3 3 2 2 3 3 3 4 4 4 5 4 4 4 4 5 5 5 5 6 5 6 4 4 4 5 5 5 4 4 5 4 4 4 4
3 3 3 2 2 2 2 2 2 1 1 2 2 3 3 4 5 5 6 4 4 4 4 4 5 5 5 6 7 6 4 4 5 4 5 6 6 6 6 5 4 3 3
1 2 2 2 2 2 3 3 2 1 3 3 3 3 3 4 4 5 4 3 4 4 4 4 4 5 4 5 7 7 4 5 4 3 4 5 5 5 7 6 5 5 4
1 2 2 2 1 1 2 2 2 4 4 3 2 3 3 4 4 4 3 3 4 4 4 3 3 4 5 5 6 7 5 5 4 4 3 3 5 5 5 6 5 6 4
2 2 2 1 1 1 1 2 4 4 3 2 2 3 3 3 3 3 3 3 3 3 4 3 3 3 3 5 6 7 7 6 5 4 3 3 4 5 5 4 4 5 4
1 1 2 1 2 0 2 3 4 2 2 2 3 3 2 2 2 3 3 3 3 3 4 4 4 3 2 2 4 6 6 7 4 3 4 4 4 4 3 3 4 4 3
1 1 2 2 2 2 2 3 3 2 2 3 3 2 2 2 2 2 3 3 4 4 4 4 4 3 3 3 3 3 3 4 3 2 2 3 3 2 1 1 2 2 3
1 1 0 1 3 3 2 3 2 1 2 2 2 2 3 3 2 3 3 3 4 5 5 5 5 5 5 5 6 5 4 4 4 3 1 1 1 1 1 1 1 1 2
1 1 1 2 3 3 3 3 2 1 1 2 2 2 2 2 2 2 2 0 1 2 4 5 5 4 5 4 5 5 5 5 6 4 2 2 2 2 3 3 2 2 3
Wind_Direction
211 192 185 178 172 172 176 180 178 173 158 152 159 167 197 203 208 220 218 207 203 197 191 188 173 173 175 179 160 143 144 152 121 96 37 15 26 17 275 211 235 256 247
193 192 185 179 181 183 185 187 188 180 178 175 165 163 154 172 193 217 218 219 207 197 196 189 184 178 171 165 167 160 160 164 154 143 125 6 347 351 356 44 21 302 267
197 195 190 190 187 191 190 193 195 192 187 172 140 118 96 74 90 180 218 224 212 208 202 198 191 180 177 186 188 179 175 181 184 162 149 159 224 308 338 357 18 21 35
197 192 191 193 195 197 190 187 190 192 186 171 167 168 175 187 202 192 203 221 207 205 205 205 200 190 184 192 200 184 181 170 188 193 184 165 158 178 285 333 1 16 1
197 193 194 195 195 191 186 184 184 188 184 177 177 175 182 187 175 171 201 226 227 214 212 206 203 202 198 197 188 176 182 183 185 181 167 156 145 180 195 254 311 352 318
194 192 191 183 184 183 182 177 178 188 183 179 178 182 187 183 178 194 214 225 227 232 224 209 205 205 204 202 198 189 186 191 189 184 176 172 175 190 191 223 243 267 290
188 187 185 185 185 184 185 181 180 188 184 182 186 191 193 188 195 204 211 214 220 226 228 214 207 207 206 200 193 191 193 192 195 199 199 197 204 180 173 182 212 245 279
186 189 190 190 188 185 181 177 179 183 182 187 193 192 192 193 202 204 202 207 217 227 219 209 213 213 206 199 188 192 200 195 203 209 199 199 207 188 183 181 177 217 273
184 184 183 187 185 181 179 181 178 177 181 186 186 186 188 190 198 203 202 210 219 229 222 211 216 219 211 202 188 196 207 196 203 207 200 201 207 196 198 190 186 187 227
176 183 186 184 177 177 172 170 175 179 177 178 185 189 186 190 192 191 204 210 215 216 211 212 215 220 217 205 198 201 202 194 205 202 196 206 208 199 197 195 196 198 204
177 183 185 177 160 148 149 160 168 165 170 173 175 178 183 184 183 198 211 214 214 213 220 219 210 212 210 204 201 205 195 195 202 205 202 212 202 194 197 190 191 200 197
165 161 153 140 136 143 149 160 163 176 182 177 171 177 177 177 188 204 214 211 217 220 220 215 216 215 207 200 202 211 203 197 200 203 198 210 200 197 197 193 199 204 204
134 130 133 138 141 149 153 163 169 181 181 173 171 175 180 183 200 212 217 209 215 220 220 214 218 218 209 202 205 205 205 203 203 200 199 204 195 201 202 200 206 208 205
133 133 137 145 142 147 151 160 165 172 175 173 178 189 196 199 205 208 211 217 218 218 219 218 220 215 208 204 203 198 204 204 204 198 197 199 197 202 201 205 209 202 198
122 125 130 126 122 124 137 153 162 163 167 169 184 200 201 200 204 212 214 217 217 221 220 217 218 215 210 208 198 202 205 199 203 201 199 199 198 200 201 202 203 197 199
146 132 121 118 134 149 151 148 157 168 165 172 189 196 195 193 197 216 226 224 224 226 220 219 219 222 227 206 196 197 206 200 200 204 206 204 208 212 212 209 202 196 198
152 143 150 158 167 172 161 165 175 163 164 182 193 194 196 204 208 214 215 224 233 231 228 226 221 226 226 207 197 192 199 204 211 212 211 211 207 214 223 215 209 210 209
158 168 174 181 178 162 157 154 140 150 172 192 208 211 208 217 219 217 224 229 235 236 235 230 225 222 228 211 198 188 196 204 212 215 215 213 216 214 207 201 203 212 217
181 192 188 190 177 167 154 131 125 134 184 224 237 239 228 226 221 222 230 235 228 232 235 227 219 220 225 205 195 186 195 205 216 221 219 216 220 217 197 192 201 216 231
128 147 147 142 147 179 159 146 163 197 238 242 245 248 245 242 237 234 237 239 231 234 223 225 222 218 214 194 189 187 192 202 209 216 224 220 216 212 194 197 198 212 226
62 100 114 135 176 170 151 171 202 231 245 251 258 256 250 247 242 238 237 236 231 229 225 220 221 221 215 205 198 192 196 204 207 213 223 225 201 195 192 196 207 212 204
62 94 101 22 339 115 156 212 239 249 248 241 257 268 264 257 252 234 241 233 222 221 219 212 223 231 220 211 208 203 202 199 203 213 219 215 190 183 183 193 207 192 176
26 56 97 56 344 287 191 231 258 260 239 237 248 256 262 265 253 231 234 240 227 226 228 219 226 235 228 220 205 199 198 197 199 203 198 188 174 172 178 186 181 173 178
347 11 49 21 319 312 294 261 265 245 231 236 240 236 234 245 242 235 225 226 232 234 230 224 225 225 220 214 198 189 185 181 184 185 157 140 137 145 175 183 181 183 186
351 9 74 275 285 297 312 306 287 221 227 238 237 239 234 226 234 238 232 228 232 228 228 227 212 203 216 220 201 186 193 192 189 167 155 150 140 162 197 224 212 195 194
339 340 331 309 295 300 312 310 302 246 203 232 246 246 241 228 220 228 256 276 234 251 226 218 205 210 208 193 187 191 190 181 168 155 175 202 202 207 217 222 225 218 220
Height
1517 1520 1523 1525 1528 1530 1532 1534 1535 1537 1539 1540 1542 1543 1544 1545 1546 1547 1548 1549 1550 1551 1551 1552 1553 1554 1555 1555 1556 1556 1557 1557 1558 1558 1558 1559 1559 1559 1559 1559 1560 1560 1560
1515 1517 1520 1523 1525 1528 1530 1532 1534 1536 1538 1539 1541 1542 1543 1544 1545 1546 1547 1548 1549 1549 1550 1551 1552 1552 1553 1554 1555 1555 1556 1556 1556 1557 1557 1557 1558 1557 1558 1558 1558 1558 1558
1511 1514 1517 1520 1523 1525 1528 1530 1533 1535 1536 1538 1540 1541 1542 1543 1544 1545 1546 1547 1547 1548 1549 1549 1550 1551 1552 1552 1553 1554 1554 1554 1555 1555 1556 1556 1556 1556 1556 1556 1556 1556 1556
1507 1510 1514 1517 1519 1522 1526 1528 1531 1533 1535 1536 1538 1539 1540 1541 1542 1544 1545 1545 1546 1546 1547 1547 1548 1549 1549 1550 1551 1551 1552 1552 1553 1553 1554 1555 1555 1555 1555 1555 1555 1555 1555
1503 1506 1509 1512 1516 1520 1523 1525 1528 1531 1533 1534 1536 1537 1539 1540 1541 1542 1543 1544 1544 1545 1545 1546 1546 1547 1547 1548 1549 1549 1550 1550 1551 1551 1552 1552 1553 1553 1553 1553 1553 1553 1553
1499 1502 1506 1510 1513 1517 1520 1523 1525 1528 1530 1532 1534 1536 1537 1538 1539 1540 1541 1542 1543 1543 1543 1544 1545 1545 1545 1546 1547 1547 1548 1548 1549 1549 1550 1550 1551 1551 1551 1551 1551 1551 1551
1495 1499 1502 1505 1509 1512 1516 1519 1522 1525 1527 1530 1532 1533 1535 1536 1537 1538 1539 1540 1541 1541 1542 1542 1543 1543 1544 1544 1544 1545 1546 1546 1546 1547 1548 1548 1549 1549 1549 1550 1549 1549 1549
1491 1494 1497 1501 1504 1508 1511 1515 1518 1521 1524 1526 1529 1531 1533 1534 1535 1536 1537 1538 1539 1539 1540 1540 1540 1541 1541 1542 1542 1542 1543 1544 1544 1544 1545 1546 1546 1547 1547 1548 1548 1547 1547
1488 1491 1494 1498 1501 1504 1508 1511 1515 1518 1521 1523 1526 1528 1530 1531 1532 1534 1535 1536 1536 1537 1537 1538 1538 1538 1538 1539 1539 1540 1540 1541 1542 1542 1542 1543 1544 1544 1545 1545 1545 1546 1545
1487 1489 1491 1494 1498 1501 1505 1509 1513 1515 1518 1521 1523 1525 1527 1528 1529 1530 1532 1533 1533 1534 1534 1535 1535 1535 1536 1536 1537 1537 1538 1538 1539 1540 1540 1540 1541 1542 1542 1542 1543 1543 1543
1485 1487 1489 1492 1496 1499 1502 1507 1510 1513 1516 1518 1521 1522 1523 1525 1526 1527 1528 1529 1530 1531 1532 1532 1532 1532 1533 1533 1534 1534 1535 1535 1536 1537 1537 1538 1538 1539 1539 1539 1539 1540 1540
1484 1486 1488 1491 1494 1497 1500 1504 1506 1510 1512 1515 1517 1519 1520 1521 1523 1524 1525 1526 1527 1527 1528 1529 1529 1529 1530 1530 1531 1531 1532 1532 1533 1534 1534 1535 1535 1536 1536 1537 1537 1537 1537
1484 1485 1488 1490 1493 1496 1498 1502 1504 1507 1510 1512 1514 1516 1517 1518 1519 1521 1522 1522 1523 1523 1524 1525 1526 1526 1526 1527 1528 1528 1529 1529 1530 1531 1531 1532 1532 1533 1533 1533 1534 1533 1533
1483 1485 1487 1489 1492 1494 1497 1500 1502 1504 1507 1509 1511 1512 1513 1515 1516 1517 1518 1518 1519 1519 1519 1520 1521 1522 1523 1524 1525 1525 1526 1526 1527 1527 1528 1529 1529 1529 1530 1530 1530 1530 1530
1482 1484 1486 1488 1491 1494 1496 1498 1500 1502 1504 1506 1508 1509 1510 1512 1513 1514 1515 1514 1514 1515 1515 1515 1516 1517 1518 1520 1521 1522 1523 1523 1524 1524 1524 1525 1525 1526 1526 1526 1526 1526 1526
1482 1484 1486 1488 1490 1493 1495 1497 1499 1501 1502 1503 1505 1506 1508 1508 1509 1510 1511 1511 1511 1511 1511 1512 1512 1513 1514 1516 1517 1519 1519 1520 1520 1520 1521 1521 1522 1522 1522 1522 1522 1523 1523
1482 1484 1486 1488 1490 1491 1493 1495 1497 1499 1501 1502 1503 1503 1504 1505 1506 1506 1507 1507 1507 1507 1507 1508 1508 1509 1510 1511 1513 1514 1515 1516 1517 1517 1517 1517 1518 1518 1518 1519 1519 1519 1518
1483 1484 1486 1488 1489 1491 1492 1494 1495 1497 1498 1499 1500 1501 1501 1502 1502 1502 1503 1503 1503 1504 1504 1504 1505 1505 1506 1507 1508 1509 1510 1511 1512 1513 1513 1514 1514 1515 1515 1515 1515 1515 1515
1483 1484 1485 1487 1488 1489 1490 1492 1493 1494 1495 1496 1497 1497 1498 1498 1498 1498 1498 1499 1499 1499 1499 1500 1500 1501 1502 1503 1504 1505 1506 1506 1507 1509 1509 1510 1510 1511 1511 1511 1510 1510 1510
1482 1483 1484 1486 1486 1487 1488 1489 1490 1491 1492 1493 1493 1494 1495 1495 1494 1494 1494 1495 1495 1495 1495 1496 1496 1497 1498 1499 1500 1501 1501 1502 1502 1503 1504 1505 1506 1506 1506 1507 1506 1506 1507
1481 1481 1482 1484 1485 1486 1486 1487 1487 1488 1489 1490 1490 1490 1491 1491 1491 1490 1490 1491 1491 1491 1491 1492 1492 1493 1494 1494 1496 1497 1497 1498 1498 1499 1500 1501 1501 1502 1502 1502 1502 1502 1503
1479 1480 1481 1482 1483 1484 1485 1485 1485 1486 1487 1486 1486 1486 1487 1487 1487 1487 1487 1487 1487 1487 1487 1487 1488 1489 1489 1490 1491 1492 1493 1494 1494 1495 1496 1496 1497 1497 1497 1498 1498 1498 1499
1478 1479 1479 1480 1481 1481 1482 1482 1482 1483 1483 1483 1482 1482 1483 1483 1483 1483 1483 1483 1483 1483 1483 1483 1483 1484 1485 1486 1487 1488 1489 1490 1490 1491 1491 1492 1492 1493 1493 1493 1494 1494 1495
1477 1478 1478 1478 1479 1479 1479 1479 1479 1479 1479 1478 1478 1478 1479 1479 1479 1479 1478 1478 1478 1479 1479 1479 1479 1479 1480 1480 1482 1483 1484 1485 1486 1487 1487 1488 1488 1489 1489 1489 1489 1490 1490
1477 1477 1477 1477 1478 1478 1477 1477 1476 1475 1475 1475 1475 1474 1475 1474 1474 1474 1474 1473 1473 1474 1474 1474 1474 1475 1475 1477 1477 1478 1480 1481 1482 1483 1483 1484 1484 1484 1485 1485 1485 1485 1486
1475 1476 1476 1476 1476 1475 1474 1474 1473 1472 1472 1471 1471 1470 1470 1470 1470 1470 1470 1469 1470 1470 1470 1471 1471 1471 1472 1473 1474 1475 1477 1477 1478 1479 1479 1479 1479 1480 1480 1481 1481 1481 1481